Regional Weather Roundup
Issued by NWS

Home | Current Version | Previous Version | Graphics & Text | Print | Product List | Glossary On
Versions: 1 2 3 4 5 6 7 8 9 10 11 12 13 14 15 16 17 18 19 20 21 22 23 24 25 26 27 28 29 30 31 32 33 34 35 36 37 38 39 40 41 42 43 44 45 46 47 48 49 50
000
ASUS43 KLOT 070908
RWRIL

ILLINOIS REGIONAL WEATHER ROUNDUP
NATIONAL WEATHER SERVICE CHICAGO/ROMEOVILLE IL
400 AM CDT TUE JUL 07 2015

NOTE: "FAIR" INDICATES FEW OR NO CLOUDS BELOW 12,000 FEET WITH NO
SIGNIFICANT WEATHER AND/OR OBSTRUCTIONS TO VISIBILITY.

* THESE STATIONS ARE NOT UNDER NWS QUALITY CONTROL. THEY ALSO MAY NOT
  REPORT WEATHER SUCH AS PRECIPITATION OR FOG.

ILZ001-002-007-009-015-016-024-071000-
NORTHWEST ILLINOIS

CITY           SKY/WX    TMP DP  RH WIND       PRES   REMARKS
MOLINE         CLOUDY    64  58  80 N9        29.91S HAZE
STERLING*      CLOUDY    63  61  94 N7        29.90R
SAVANNA*       MOCLDY    62  57  84 N9G16     29.91S HAZE
$$

ILZ003-004-008-010-011-017-018-071000-
NORTH CENTRAL ILLINOIS

CITY           SKY/WX    TMP DP  RH WIND       PRES   REMARKS
ROCKFORD       LGT RAIN  63  59  87 N14       29.91R FOG
FREEPORT*      CLOUDY    61  58  90 N8        29.93R FOG
ROCHELLE*      RAIN      62  61  96 N10G18    29.88F
DE KALB*       HVY RAIN  62  60  94 N10G17    29.88F
PERU*          CLOUDY    67  65  94 N9        29.87R
$$

ILZ005-006-012>014-019>023-071000-
NORTHEAST ILLINOIS

CITY           SKY/WX    TMP DP  RH WIND       PRES   REMARKS
CHICAGO-OHARE  CLOUDY    71  69  93 W6        29.84S
CHICAGO-MIDWAY LGT RAIN  73  69  87 SW6       29.84S
AURORA         CLOUDY    67  63  87 N14       29.86R
LANSING*       RAIN      71  68  90 CALM      29.85F
JOLIET*        HVY RAIN  72  71  98 SW5       29.86R
WAUKEGAN       CLOUDY    59  57  93 N13G28    29.87R
DUPAGE AIRPORT CLOUDY    67  64  90 NW14      29.85R
KANKAKEE*      LGT RAIN  71  71  99 SW6       29.87S
WHEELING       CLOUDY    69  65  86 N12G20    29.87R
MORRIS*        LGT RAIN  71  70  96 SW3       29.83F
ROMEOVILLE*    RAIN      71  70  98 SW8       29.86R
NORTHERLY ISL    N/A     72  68  87 S3          N/A
$$

LMZ740>746-071000-
SOUTHERN LAKE MICHIGAN

STATION/POSITION SKY/WX   TEMP    WIND        PRES    VSBY  WAVE
                          AIR SEA DIR/SP/G                  HT/PER
                          (F)     (DEG/KT/KT) (MB)    (MI)  (FT/S)
HARRISON CRIB              71     190/  8/  9   N/A
BURNHAM HARBOR             72     220/  3/  5   N/A
CALUMET HARBOR             72     200/  4/  6   N/A
BURNS HARBOR               73     230/  7/  9 1011.5F
MICHIGAN CITY              70     220/  6/  7   N/A
MICHIGAN CITY 6N           70 68  240/  6/  8   N/A           1
ST. JOSEPH                 68 66  220/  6/  6   N/A           1/ 3
$$

ILZ025>027-034>036-040-047-049-050-058-095>099-071000-
WEST-CENTRAL ILLINOIS

CITY           SKY/WX    TMP DP  RH WIND       PRES   REMARKS
QUINCY         LGT RAIN  68  67  96 N15       29.89S
GALESBURG*     DRIZZLE   64  62  94 N14       29.91R
MACOMB*        CLOUDY    65  64  99 N12       29.92R FOG
JACKSONVILLE*  RAIN      73  71  94 S3        29.89R
PITTSFIELD*    LGT RAIN  72  70  93 CALM      29.89F
$$

ILZ028>032-037-038-041>044-048-051>054-059>061-071000-
CENTRAL ILLINOIS

CITY           SKY/WX    TMP DP  RH WIND       PRES   REMARKS
PONTIAC        LGT RAIN  72  72 100 CALM      29.86F
BLOOMINGTON    LGT RAIN  72  72 100 SW5       29.87F
DECATUR        LGT RAIN  77  72  84 W9        29.88R
PEORIA         CLOUDY    73  70  90 W5        29.86F
LACON*         RAIN      70  68  95 NW13      29.85S
LINCOLN*       CLOUDY    73  72  94 CALM      29.87R
SPRINGFIELD    HVY RAIN  73  70  90 W14       29.87S FOG
TAYLORVILLE    CLOUDY    75  72  88 SW5       29.87S
$$

ILZ033-039-045-046-055>057-062-063-071000-
EAST-CENTRAL ILLINOIS

CITY           SKY/WX    TMP DP  RH WIND       PRES   REMARKS
CHAMPAIGN      CLOUDY    75  73  93 S10       29.87F
DANVILLE*      LGT RAIN  75  73  95 S12G17    29.85F
RANTOUL*       CLOUDY    77  74  91 SW10      29.86F
MATTOON        CLOUDY    75  73  93 S9        29.88F
PARIS*         CLOUDY    75  73  94 S8        29.90F
$$

ILZ079-100>102-071000-
SOUTHWEST ILLINOIS

CITY           SKY/WX    TMP DP  RH WIND       PRES   REMARKS
ALTON          CLOUDY    77  77 100 S8        29.88S
BELLEVILLE     CLOUDY    77  77  99 S9        29.87F
CAHOKIA*       CLOUDY    80  72  76 VRB7G16   29.88S HX  84
SPARTA*        CLOUDY    76  73  88 SW9       29.91F
$$

ILZ064>066-069>071-074>076-080>082-084>086-088>090-092>094-071000-
SOUTH-CENTRAL ILLINOIS

CITY           SKY/WX    TMP DP  RH WIND       PRES   REMARKS
CARBONDALE     MOCLDY    77  72  84 SW10      29.93F
CAIRO*         HVY RAIN  74  73  95 CALM      29.94F VSB 1
EFFINGHAM*     CLOUDY    75  71  87 SE3       29.91F
MARION         CLOUDY    77  73  88 S8        29.94F
MT. VERNON     CLOUDY    75  70  83 SW9       29.92F
CENTRALIA*     CLOUDY    76  71  83 S10G17    29.90F
SALEM*         CLOUDY    78  73  82 S9        29.90F HX  81
$$

ILZ067-068-072-073-078-083-087-091-071000-
SOUTHEAST ILLINOIS

CITY           SKY/WX    TMP DP  RH WIND       PRES   REMARKS
LAWRENCEVILLE  CLOUDY    76  73  91 S10       29.93F
FLORA*         CLOUDY    76  73  90 S9        29.92F
FAIRFIELD*     CLOUDY    75  73  93 S7        29.92S
HARRISBURG*    MOCLDY    76  73  90 S7        29.96S
ROBINSON*      CLOUDY    76  73  91 S7        29.92F
CARMI*         MOCLDY    75  69  80 S8        29.94S
$$

ABBREVIATIONS USED IN REMARKS
   TC - TEMPERATURE IN CELSIUS
  WCI - WIND CHILL INDEX
   HX - HEAT INDEX
  VSB - VISIBILITY
$$



USA.gov is the U.S. government's official web portal to all federal, state and local government web resources and services.